sat.trackr.live / text

‹ back to catalog

ORBCOMM FM114

NORAD 41179 · 2015-081A

PAYLOAD ACTIVE UNKNOWN

§ Identity

Operator
Country
ORB
Launch date
2015-12-22
Launch site
AFETR
Launch vehicle
Mass (kg)
RCS (m²)
0.56

Purposes: comms

External: N2YO · Heavens-Above · Gunter

§ Orbital elements

Epoch: 2026-06-13T06:43:33.452256Z

Period
98.71 min
Inclination
47.0060°
Eccentricity
0.0002252
Mean motion
14.58854678 rev/d
Perigee alt
695.3 km
Apogee alt
698.5 km
Semi-major
7,075.0 km
B*
1.2794e-4
RAAN
20.4759°
Arg perigee
192.2086°
Mean anomaly
167.8745°
Rev number
55,718

§ Raw data

ORBCOMM FM1141 41179U 15081A   26164.28024829  .00000433  00000+0  12794-3 0  99962 41179  47.0060  20.4759 0002252 192.2086 167.8745 14.58854678557187

JSON: /api/v1/satellites/41179 · /tle

For live sub-satellite position, see the globe view (requires WebGL).

§ Visibility from observer

Set your observer location to see the next 7 days of passes ≥ 10°. The values pass through the URL so the page stays shareable.

No JS? Fill the form by hand. The geolocation button needs JavaScript.

§ Radio — SatNOGS DB

ModeDescriptionDownlinkUplink
FM Telemetry 137.288 MHz
FM Telemetry 137.740 MHz

2 transmitters · refreshed weekly from db.satnogs.org